Weather History for Cloquet, MN

Change the Weather History Date:

Friday, March 14, 2014

  Actual Average Record
Temperature  
Mean Temperature 30 °F -  
Max Temperature 39 °F 32 °F 68 °F (2012)
Min Temperature 21 °F 14 °F 3 °F (2005)
Degree Days  
Heating Degree Days 35    
Moisture  
Dew Point 24 °F    
Average Humidity 73    
Maximum Humidity 87    
Minimum Humidity 59    
Precipitation  
Precipitation 0.00 in - - ()
Sea Level Pressure  
Sea Level Pressure 29.58 in    
Wind  
Wind Speed 11 mph (WNW)    
Max Wind Speed 23 mph    
Max Gust Speed 32 mph    
Visibility 10 miles    
Events Snow    
Averages and records for this station are not official NWS values.
T = Trace of Precipitation, MM = Missing Value Source: NWS Daily Summary

Daily Weather History Graph

Daily Weather History Graph

Search for Another Location

Airport:

Trip Planner

Search our weather history database for the weather conditions in past years. The results will help you decide how hot, cold, wet, or windy it might be!

Date:

Astronomy

Mar. 14, 2014 Rise Set
Actual Time 7:24 AM CDT 7:14 PM CDT
Civil Twilight 6:54 AM CDT 7:44 PM CDT
Nautical Twilight 6:19 AM CDT 8:19 PM CDT
Astronomical Twilight 5:43 AM CDT 8:55 PM CDT
Moon 5:33 PM CDT (3/14) 6:10 AM CDT (3/14)
Length of Visible Light 12h 49m
Length of Day
11h 49m
Waxing Gibbous, 96% of the Moon is Illuminated
Mar 14
Waxing Gibbous
Mar 16
Full
Mar 23
Last Quarter
Mar 30
New
Apr 7
First Quarter

Hourly Weather History & Observations

Time (CDT) Temp. Windchill Dew Point Humidity Pressure Visibility Wind Dir Wind Speed Gust Speed Precip Events Conditions
12:16 AM 39.2 °F 35.0 °F 35.6 °F 87% 29.41 in 10.0 mi WSW 5.8 mph - N/A   Clear
12:37 AM 39.2 °F 35.0 °F 33.8 °F 81% 29.41 in 10.0 mi WSW 5.8 mph - N/A   Clear
12:56 AM 39.2 °F 34.2 °F 33.8 °F 81% 29.41 in 10.0 mi WSW 6.9 mph - N/A   Clear
1:17 AM 39.2 °F 34.2 °F 33.8 °F 81% 29.41 in 10.0 mi West 6.9 mph - N/A   Clear
1:37 AM 39.2 °F 33.0 °F 33.8 °F 81% 29.41 in 10.0 mi West 9.2 mph - N/A   Clear
1:56 AM 39.2 °F 33.0 °F 33.8 °F 81% 29.41 in 10.0 mi West 9.2 mph - N/A   Clear
2:17 AM 39.2 °F 32.5 °F 33.8 °F 81% 29.41 in 10.0 mi West 10.4 mph - N/A   Clear
2:37 AM 39.2 °F 33.6 °F 33.8 °F 81% 29.42 in 10.0 mi WNW 8.1 mph - N/A   Clear
2:56 AM 37.4 °F 30.8 °F 32.0 °F 81% 29.42 in 10.0 mi WNW 9.2 mph - N/A   Clear
3:17 AM 37.4 °F 30.3 °F 32.0 °F 81% 29.42 in 10.0 mi West 10.4 mph - N/A   Clear
3:37 AM 37.4 °F 30.8 °F 30.2 °F 75% 29.41 in 10.0 mi West 9.2 mph 16.1 mph N/A   Clear
3:56 AM 37.4 °F 30.3 °F 30.2 °F 75% 29.41 in 10.0 mi West 10.4 mph - N/A   Clear
4:16 AM 35.6 °F 28.6 °F 30.2 °F 81% 29.41 in 10.0 mi West 9.2 mph - N/A   Clear
4:37 AM 35.6 °F 28.6 °F 30.2 °F 81% 29.41 in 10.0 mi West 9.2 mph - N/A   Clear
4:56 AM 35.6 °F 28.0 °F 30.2 °F 81% 29.41 in 10.0 mi West 10.4 mph - N/A   Clear
5:16 AM 35.6 °F 27.5 °F 30.2 °F 81% 29.42 in 10.0 mi West 11.5 mph - N/A   Clear
5:37 AM 33.8 °F 25.3 °F 30.2 °F 87% 29.42 in 10.0 mi West 11.5 mph - N/A   Clear
5:56 AM 33.8 °F 26.4 °F 28.4 °F 81% 29.42 in 10.0 mi West 9.2 mph - N/A   Clear
6:16 AM 33.8 °F 25.8 °F 28.4 °F 81% 29.43 in 10.0 mi West 10.4 mph - N/A   Clear
6:37 AM 33.8 °F 26.4 °F 28.4 °F 81% 29.43 in 10.0 mi West 9.2 mph - N/A   Clear
6:56 AM 32.0 °F 24.2 °F 28.4 °F 87% 29.44 in 10.0 mi West 9.2 mph - N/A   Scattered Clouds
7:16 AM 33.8 °F 25.8 °F 28.4 °F 81% 29.44 in 10.0 mi West 10.4 mph - N/A   Mostly Cloudy
7:37 AM 33.8 °F 23.5 °F 28.4 °F 81% 29.45 in 10.0 mi WNW 16.1 mph 24.2 mph N/A   Overcast
7:56 AM 33.8 °F 24.3 °F 28.4 °F 81% 29.46 in 10.0 mi WNW 13.8 mph - N/A   Overcast
8:16 AM 33.8 °F 23.9 °F 28.4 °F 81% 29.46 in 10.0 mi West 15.0 mph - N/A   Overcast
8:37 AM 33.8 °F 25.3 °F 28.4 °F 81% 29.46 in 10.0 mi WNW 11.5 mph 17.3 mph N/A   Overcast
8:56 AM 33.8 °F 25.8 °F 28.4 °F 81% 29.47 in 10.0 mi WNW 10.4 mph 20.7 mph N/A   Overcast
9:16 AM 35.6 °F 28.0 °F 28.4 °F 75% 29.48 in 10.0 mi West 10.4 mph 16.1 mph N/A   Overcast
9:37 AM 35.6 °F 27.1 °F 28.4 °F 75% 29.48 in 10.0 mi West 12.7 mph 19.6 mph N/A   Overcast
9:56 AM 35.6 °F 26.2 °F 28.4 °F 75% 29.48 in 10.0 mi West 15.0 mph 18.4 mph N/A   Overcast
10:17 AM 35.6 °F 25.5 °F 28.4 °F 75% 29.49 in 10.0 mi WNW 17.3 mph 25.3 mph N/A   Overcast
10:36 AM 35.6 °F 26.6 °F 28.4 °F 75% 29.49 in 10.0 mi West 13.8 mph 25.3 mph N/A   Overcast
10:56 AM 35.6 °F 25.2 °F 28.4 °F 75% 29.49 in 10.0 mi WNW 18.4 mph 26.5 mph N/A   Overcast
11:17 AM 35.6 °F 27.1 °F 28.4 °F 75% 29.50 in 10.0 mi WNW 12.7 mph 26.5 mph N/A   Overcast
11:36 AM 35.6 °F 25.5 °F 28.4 °F 75% 29.50 in 10.0 mi WNW 17.3 mph 27.6 mph N/A   Overcast
11:56 AM 37.4 °F 27.8 °F 28.4 °F 70% 29.51 in 10.0 mi West 17.3 mph 28.8 mph N/A   Overcast
12:17 PM 37.4 °F 27.2 °F 26.6 °F 65% 29.51 in 10.0 mi WNW 19.6 mph 29.9 mph N/A   Mostly Cloudy
12:36 PM 37.4 °F 26.9 °F 26.6 °F 65% 29.52 in 10.0 mi WNW 20.7 mph 32.2 mph N/A   Mostly Cloudy
12:57 PM 37.4 °F 27.5 °F 26.6 °F 65% 29.53 in 10.0 mi NW 18.4 mph 28.8 mph N/A   Overcast
1:16 PM 37.4 °F 27.2 °F 24.8 °F 60% 29.53 in 10.0 mi WNW 19.6 mph 28.8 mph N/A   Mostly Cloudy
1:36 PM 35.6 °F 24.2 °F 24.8 °F 65% 29.54 in 10.0 mi WNW 21.9 mph 29.9 mph N/A   Overcast
1:57 PM 35.6 °F 24.5 °F 23.0 °F 60% 29.56 in 10.0 mi WNW 20.7 mph 28.8 mph N/A   Overcast
2:16 PM 33.8 °F 22.5 °F 21.2 °F 60% 29.57 in 10.0 mi West 19.6 mph 26.5 mph N/A   Overcast
2:36 PM 32.0 °F 19.2 °F 21.2 °F 64% 29.59 in 10.0 mi WNW 23.0 mph 28.8 mph N/A   Overcast
2:57 PM 30.2 °F 17.4 °F 21.2 °F 69% 29.60 in 10.0 mi WNW 20.7 mph 28.8 mph N/A   Overcast
3:16 PM 30.2 °F 18.1 °F 21.2 °F 69% 29.62 in 10.0 mi WNW 18.4 mph 26.5 mph N/A   Overcast
3:36 PM 28.4 °F 16.2 °F 19.4 °F 69% 29.62 in 10.0 mi WNW 17.3 mph 25.3 mph N/A   Overcast
3:57 PM 28.4 °F 16.2 °F 19.4 °F 69% 29.63 in 10.0 mi WNW 17.3 mph 24.2 mph N/A   Overcast
4:16 PM 28.4 °F 16.2 °F 19.4 °F 69% 29.65 in 10.0 mi WNW 17.3 mph 24.2 mph N/A   Overcast
4:36 PM 28.4 °F 15.8 °F 19.4 °F 69% 29.66 in 10.0 mi WNW 18.4 mph 25.3 mph N/A   Overcast
4:57 PM 28.4 °F 15.8 °F 19.4 °F 69% 29.67 in 10.0 mi WNW 18.4 mph 26.5 mph N/A   Overcast
5:16 PM 28.4 °F 18.0 °F 19.4 °F 69% 29.68 in 10.0 mi NW 12.7 mph 20.7 mph N/A   Overcast
5:36 PM 26.6 °F 13.4 °F 19.4 °F 74% 29.69 in 10.0 mi WNW 18.4 mph 24.2 mph N/A   Overcast
5:57 PM 26.6 °F 14.3 °F 17.6 °F 69% 29.70 in 10.0 mi WNW 16.1 mph 23.0 mph N/A   Overcast
6:16 PM 26.6 °F 13.8 °F 17.6 °F 69% 29.72 in 10.0 mi WNW 17.3 mph 23.0 mph N/A   Overcast
6:36 PM 26.6 °F 14.3 °F 17.6 °F 69% 29.73 in 10.0 mi NW 16.1 mph 19.6 mph N/A   Overcast
6:57 PM 26.6 °F 15.7 °F 17.6 °F 69% 29.75 in 10.0 mi WNW 12.7 mph 21.9 mph N/A   Overcast
7:16 PM 26.6 °F 16.8 °F 17.6 °F 69% 29.76 in 10.0 mi WNW 10.4 mph - N/A   Overcast
7:36 PM 26.6 °F 14.3 °F 17.6 °F 69% 29.78 in 10.0 mi WNW 16.1 mph 21.9 mph N/A   Overcast
7:57 PM 26.6 °F 18.2 °F 17.6 °F 69% 29.79 in 10.0 mi WNW 8.1 mph - N/A   Overcast
8:16 PM 24.8 °F 14.0 °F 15.8 °F 69% 29.81 in 10.0 mi WNW 11.5 mph 19.6 mph N/A Snow Light Snow
8:36 PM 24.8 °F 12.9 °F 15.8 °F 69% 29.82 in 10.0 mi NNW 13.8 mph 19.6 mph N/A Snow Light Snow
8:57 PM 24.8 °F 12.4 °F 14.0 °F 64% 29.84 in 10.0 mi NW 15.0 mph 26.5 mph N/A Snow Light Snow
9:16 PM 24.8 °F 10.7 °F 12.2 °F 59% 29.85 in 10.0 mi NW 19.6 mph 25.3 mph N/A Snow Light Snow
9:36 PM 23.0 °F 11.7 °F 12.2 °F 63% 29.85 in 10.0 mi NW 11.5 mph 21.9 mph N/A   Overcast
9:57 PM 23.0 °F 11.7 °F 12.2 °F 63% 29.87 in 10.0 mi NW 11.5 mph 19.6 mph N/A   Overcast
10:16 PM 23.0 °F 13.1 °F 12.2 °F 63% 29.87 in 10.0 mi NW 9.2 mph - N/A   Overcast
10:36 PM 23.0 °F 11.1 °F 12.2 °F 63% 29.89 in 10.0 mi NW 12.7 mph 16.1 mph N/A   Overcast
10:57 PM 23.0 °F 11.7 °F 12.2 °F 63% 29.89 in 10.0 mi NW 11.5 mph 17.3 mph N/A   Overcast
11:16 PM 23.0 °F 12.4 °F 12.2 °F 63% 29.90 in 10.0 mi NW 10.4 mph - N/A   Overcast
11:37 PM 21.2 °F 11.7 °F 12.2 °F 68% 29.90 in 10.0 mi WNW 8.1 mph - N/A   Overcast
11:57 PM 21.2 °F 10.9 °F 12.2 °F 68% 29.91 in 10.0 mi WNW 9.2 mph - N/A   Overcast